Time,TemperatureF,DewpointF,PressureIn,WindDirection,WindDirectionDegrees,WindSpeedMPH,WindSpeedGustMPH,Humidity,HourlyPrecipIn,Conditions,Clouds,dailyrainin,SoftwareType,DateUTC
2013-01-24 00:02:00,29.0,26.0,29.78,NW,321,1.0,5.0,89,0.00,,,0.00,,2013-01-24 07:02:00,
2013-01-24 00:12:00,29.0,26.0,29.78,NW,321,1.0,5.0,89,0.00,,,0.00,,2013-01-24 07:12:00,
2013-01-24 00:22:00,34.0,31.0,29.78,North,355,1.0,6.0,89,0.00,,,0.00,,2013-01-24 07:22:00,
2013-01-24 00:32:00,34.0,31.0,29.78,North,355,1.0,6.0,89,0.00,,,0.00,,2013-01-24 07:32:00,
2013-01-24 00:53:00,37.0,32.0,29.77,East,88,3.0,10.0,82,0.00,,,0.00,,2013-01-24 07:53:00,
2013-01-24 01:22:00,38.0,31.0,29.76,West,271,4.0,14.0,75,0.00,,,0.00,,2013-01-24 08:22:00,
2013-01-24 01:53:00,39.0,31.0,29.75,WNW,290,2.0,11.0,72,0.00,,,0.00,,2013-01-24 08:53:00,
2013-01-24 02:22:00,38.0,30.0,29.78,East,89,1.0,9.0,72,0.00,,,0.00,,2013-01-24 09:22:00,
2013-01-24 02:53:00,38.0,30.0,29.78,East,81,3.0,10.0,72,0.01,,,0.01,,2013-01-24 09:53:00,
2013-01-24 03:12:00,38.0,30.0,29.78,East,81,3.0,10.0,72,0.01,,,0.01,,2013-01-24 10:12:00,
2013-01-24 03:22:00,37.0,29.0,29.80,NE,36,3.0,9.0,73,0.01,,,0.01,,2013-01-24 10:22:00,
2013-01-24 03:32:00,37.0,29.0,29.80,NE,36,3.0,9.0,73,0.01,,,0.01,,2013-01-24 10:32:00,
2013-01-24 03:43:00,37.0,29.0,29.80,NE,36,3.0,9.0,73,0.01,,,0.01,,2013-01-24 10:43:00,
2013-01-24 03:53:00,37.0,30.0,29.82,NE,46,0.0,4.0,76,0.01,,,0.02,,2013-01-24 10:53:00,
2013-01-24 04:02:00,37.0,30.0,29.82,NE,46,0.0,4.0,76,0.01,,,0.02,,2013-01-24 11:02:00,
2013-01-24 04:12:00,37.0,30.0,29.82,NE,46,0.0,4.0,76,0.01,,,0.02,,2013-01-24 11:12:00,
2013-01-24 04:22:00,36.0,29.0,29.81,ENE,62,0.0,4.0,76,0.01,,,0.02,,2013-01-24 11:22:00,
2013-01-24 04:32:00,36.0,29.0,29.81,ENE,62,0.0,4.0,76,0.01,,,0.02,,2013-01-24 11:32:00,
2013-01-24 04:43:00,36.0,29.0,29.81,ENE,62,0.0,4.0,76,0.01,,,0.02,,2013-01-24 11:43:00,
2013-01-24 04:53:00,36.0,28.0,29.83,NE,37,0.0,4.0,73,0.00,,,0.02,,2013-01-24 11:53:00,
2013-01-24 05:02:00,36.0,28.0,29.83,NE,37,0.0,4.0,73,0.00,,,0.02,,2013-01-24 12:02:00,
2013-01-24 05:12:00,36.0,28.0,29.83,NE,37,0.0,4.0,73,0.00,,,0.02,,2013-01-24 12:12:00,
2013-01-24 05:22:00,36.0,26.0,29.85,South,189,2.0,7.0,68,0.00,,,0.02,,2013-01-24 12:22:00,
2013-01-24 05:32:00,36.0,26.0,29.85,South,189,2.0,7.0,68,0.00,,,0.02,,2013-01-24 12:32:00,
2013-01-24 05:43:00,36.0,26.0,29.85,South,189,2.0,7.0,68,0.00,,,0.02,,2013-01-24 12:43:00,
2013-01-24 05:53:00,36.0,26.0,29.86,NE,48,1.0,5.0,67,0.01,,,0.03,,2013-01-24 12:53:00,
2013-01-24 06:02:00,36.0,26.0,29.86,NE,48,1.0,5.0,67,0.01,,,0.03,,2013-01-24 13:02:00,
2013-01-24 06:12:00,36.0,26.0,29.86,NE,48,1.0,5.0,67,0.01,,,0.03,,2013-01-24 13:12:00,
2013-01-24 06:22:00,36.0,26.0,29.87,NE,46,0.0,9.0,67,0.01,,,0.03,,2013-01-24 13:22:00,
2013-01-24 06:32:00,36.0,26.0,29.87,NE,46,0.0,9.0,67,0.01,,,0.03,,2013-01-24 13:32:00,
2013-01-24 06:43:00,36.0,26.0,29.87,NE,46,0.0,9.0,67,0.01,,,0.03,,2013-01-24 13:43:00,
2013-01-24 06:53:00,36.0,26.0,29.91,WNW,299,2.0,3.0,67,0.00,,,0.03,,2013-01-24 13:53:00,
2013-01-24 07:02:00,36.0,26.0,29.91,WNW,299,2.0,3.0,67,0.00,,,0.03,,2013-01-24 14:02:00,
2013-01-24 07:12:00,36.0,26.0,29.91,WNW,299,2.0,3.0,67,0.00,,,0.03,,2013-01-24 14:12:00,
2013-01-24 07:22:00,35.0,25.0,29.90,ENE,61,1.0,6.0,67,0.00,,,0.03,,2013-01-24 14:22:00,
2013-01-24 07:32:00,35.0,25.0,29.90,ENE,61,1.0,6.0,67,0.00,,,0.03,,2013-01-24 14:32:00,
2013-01-24 07:43:00,35.0,25.0,29.90,ENE,61,1.0,6.0,67,0.00,,,0.03,,2013-01-24 14:43:00,
2013-01-24 07:53:00,34.0,25.0,29.92,ENE,76,1.0,7.0,68,0.00,,,0.03,,2013-01-24 14:53:00,
2013-01-24 08:02:00,34.0,25.0,29.92,ENE,76,1.0,7.0,68,0.00,,,0.03,,2013-01-24 15:02:00,
2013-01-24 08:12:00,34.0,25.0,29.92,ENE,76,1.0,7.0,68,0.00,,,0.03,,2013-01-24 15:12:00,
2013-01-24 08:22:00,34.0,25.0,29.93,NNE,18,1.0,2.0,68,0.00,,,0.03,,2013-01-24 15:22:00,
2013-01-24 08:32:00,34.0,25.0,29.93,NNE,18,1.0,2.0,68,0.00,,,0.03,,2013-01-24 15:32:00,
2013-01-24 08:43:00,34.0,25.0,29.93,NNE,18,1.0,2.0,68,0.00,,,0.03,,2013-01-24 15:43:00,
2013-01-24 08:53:00,34.0,25.0,29.96,ESE,121,0.0,3.0,68,0.00,,,0.03,,2013-01-24 15:53:00,
2013-01-24 09:02:00,34.0,25.0,29.96,ESE,121,0.0,3.0,68,0.00,,,0.03,,2013-01-24 16:02:00,
2013-01-24 09:12:00,34.0,25.0,29.96,ESE,121,0.0,3.0,68,0.00,,,0.03,,2013-01-24 16:12:00,
2013-01-24 09:22:00,34.0,25.0,29.98,NNW,332,1.0,5.0,68,0.00,,,0.03,,2013-01-24 16:22:00,
2013-01-24 09:33:00,34.0,25.0,29.98,NNW,332,1.0,5.0,68,0.00,,,0.03,,2013-01-24 16:33:00,
2013-01-24 09:43:00,34.0,25.0,29.98,NNW,332,1.0,5.0,68,0.00,,,0.03,,2013-01-24 16:43:00,
2013-01-24 10:01:00,34.0,23.0,30.00,NE,55,1.0,5.0,65,0.00,,,0.03,,2013-01-24 17:01:00,
2013-01-24 10:11:00,34.0,23.0,30.00,NE,55,1.0,5.0,65,0.00,,,0.03,,2013-01-24 17:11:00,
2013-01-24 10:21:00,35.0,24.0,30.00,NNW,347,1.0,3.0,64,0.00,,,0.03,,2013-01-24 17:21:00,
2013-01-24 10:31:00,35.0,24.0,30.00,NNW,347,1.0,3.0,64,0.00,,,0.03,,2013-01-24 17:31:00,
2013-01-24 10:42:00,35.0,24.0,30.00,NNW,347,1.0,3.0,64,0.00,,,0.03,,2013-01-24 17:42:00,
2013-01-24 10:52:00,38.0,25.0,30.01,NNW,338,2.0,4.0,59,0.00,,,0.03,,2013-01-24 17:52:00,
2013-01-24 11:01:00,38.0,25.0,30.01,NNW,338,2.0,4.0,59,0.00,,,0.03,,2013-01-24 18:01:00,
2013-01-24 11:11:00,38.0,24.0,30.01,East,79,1.0,7.0,56,0.00,,,0.03,,2013-01-24 18:11:00,
2013-01-24 11:21:00,38.0,24.0,30.01,East,79,1.0,7.0,56,0.00,,,0.03,,2013-01-24 18:21:00,
2013-01-24 11:32:00,38.0,24.0,30.01,East,79,1.0,7.0,56,0.00,,,0.03,,2013-01-24 18:32:00,
2013-01-24 11:43:00,38.0,24.0,30.01,East,79,1.0,7.0,56,0.00,,,0.03,,2013-01-24 18:43:00,
2013-01-24 11:53:00,37.0,23.0,30.01,ENE,65,2.0,4.0,56,0.01,,,0.04,,2013-01-24 18:53:00,
2013-01-24 12:01:00,37.0,23.0,30.01,ENE,65,2.0,4.0,56,0.01,,,0.04,,2013-01-24 19:01:00,
2013-01-24 12:12:00,37.0,23.0,30.01,ENE,65,2.0,4.0,56,0.01,,,0.04,,2013-01-24 19:12:00,
2013-01-24 12:21:00,38.0,22.0,30.00,NNE,33,1.0,8.0,53,0.01,,,0.04,,2013-01-24 19:21:00,
2013-01-24 12:32:00,38.0,22.0,30.00,NNE,33,1.0,8.0,53,0.01,,,0.04,,2013-01-24 19:32:00,
2013-01-24 12:42:00,39.0,23.0,30.01,NE,38,0.0,9.0,52,0.00,,,0.04,,2013-01-24 19:42:00,
2013-01-24 12:52:00,39.0,23.0,30.01,NE,38,0.0,9.0,52,0.00,,,0.04,,2013-01-24 19:52:00,
2013-01-24 13:01:00,39.0,23.0,30.01,NE,38,0.0,9.0,52,0.00,,,0.04,,2013-01-24 20:01:00,
2013-01-24 13:11:00,39.0,23.0,30.01,NE,38,0.0,9.0,52,0.00,,,0.04,,2013-01-24 20:11:00,
2013-01-24 13:21:00,39.0,23.0,30.00,NE,55,2.0,7.0,52,0.00,,,0.04,,2013-01-24 20:21:00,
2013-01-24 13:32:00,39.0,23.0,30.00,NE,55,2.0,7.0,52,0.00,,,0.04,,2013-01-24 20:32:00,
2013-01-24 13:42:00,39.0,23.0,30.00,NE,55,2.0,7.0,52,0.00,,,0.04,,2013-01-24 20:42:00,
2013-01-24 13:52:00,39.0,22.0,30.00,NE,36,2.0,6.0,50,0.00,,,0.04,,2013-01-24 20:52:00,
2013-01-24 14:01:00,39.0,22.0,30.00,NE,36,2.0,6.0,50,0.00,,,0.04,,2013-01-24 21:01:00,
2013-01-24 14:11:00,39.0,22.0,30.00,NE,36,2.0,6.0,50,0.00,,,0.04,,2013-01-24 21:11:00,
2013-01-24 14:21:00,39.0,22.0,30.01,East,101,2.0,5.0,50,0.00,,,0.04,,2013-01-24 21:21:00,
2013-01-24 14:32:00,39.0,22.0,30.01,East,101,2.0,5.0,50,0.00,,,0.04,,2013-01-24 21:32:00,
2013-01-24 14:43:00,39.0,22.0,30.01,East,101,2.0,5.0,50,0.00,,,0.04,,2013-01-24 21:43:00,
2013-01-24 14:52:00,38.0,22.0,30.02,East,83,0.0,5.0,52,0.00,,,0.04,,2013-01-24 21:52:00,
2013-01-24 15:02:00,38.0,22.0,30.02,East,83,0.0,5.0,52,0.00,,,0.04,,2013-01-24 22:02:00,
2013-01-24 15:12:00,38.0,22.0,30.02,East,83,0.0,5.0,52,0.00,,,0.04,,2013-01-24 22:12:00,
2013-01-24 15:21:00,38.0,22.0,30.02,East,86,0.0,3.0,53,0.00,,,0.04,,2013-01-24 22:21:00,
2013-01-24 15:32:00,38.0,22.0,30.02,East,86,0.0,3.0,53,0.00,,,0.04,,2013-01-24 22:32:00,
2013-01-24 15:42:00,38.0,22.0,30.02,East,86,0.0,3.0,53,0.00,,,0.04,,2013-01-24 22:42:00,
2013-01-24 15:52:00,37.0,22.0,30.01,ENE,72,2.0,2.0,54,0.01,,,0.05,,2013-01-24 22:52:00,
2013-01-24 16:01:00,37.0,22.0,30.01,ENE,72,2.0,2.0,54,0.01,,,0.05,,2013-01-24 23:01:00,
2013-01-24 16:11:00,37.0,22.0,30.01,ENE,72,2.0,2.0,54,0.01,,,0.05,,2013-01-24 23:11:00,
2013-01-24 16:21:00,37.0,21.0,30.01,ENE,71,0.0,3.0,52,0.01,,,0.05,,2013-01-24 23:21:00,
2013-01-24 16:31:00,37.0,21.0,30.01,ENE,71,0.0,3.0,52,0.01,,,0.05,,2013-01-24 23:31:00,
2013-01-24 16:42:00,37.0,21.0,30.01,ENE,71,0.0,3.0,52,0.01,,,0.05,,2013-01-24 23:42:00,
2013-01-24 16:52:00,35.0,20.0,30.02,NE,48,1.0,3.0,54,0.00,,,0.05,,2013-01-24 23:52:00,
2013-01-24 17:01:00,35.0,20.0,30.02,NE,48,1.0,3.0,54,0.00,,,0.05,,2013-01-25 00:01:00,
2013-01-24 17:12:00,35.0,20.0,30.02,NE,48,1.0,3.0,54,0.00,,,0.05,,2013-01-25 00:12:00,
2013-01-24 17:21:00,34.0,22.0,30.03,ENE,57,0.0,0.0,62,0.00,,,0.05,,2013-01-25 00:21:00,
2013-01-24 17:31:00,34.0,22.0,30.03,ENE,57,0.0,0.0,62,0.00,,,0.05,,2013-01-25 00:31:00,
2013-01-24 17:42:00,34.0,22.0,30.03,ENE,57,0.0,0.0,62,0.00,,,0.05,,2013-01-25 00:42:00,
2013-01-24 17:52:00,30.0,20.0,30.02,ENE,57,0.0,0.0,67,0.00,,,0.05,,2013-01-25 00:52:00,
2013-01-24 18:01:00,30.0,20.0,30.02,ENE,57,0.0,0.0,67,0.00,,,0.05,,2013-01-25 01:01:00,
2013-01-24 18:11:00,30.0,20.0,30.02,ENE,57,0.0,0.0,67,0.00,,,0.05,,2013-01-25 01:11:00,
2013-01-24 18:21:00,29.0,19.0,30.04,NE,53,0.0,1.0,67,0.00,,,0.05,,2013-01-25 01:21:00,
2013-01-24 18:31:00,29.0,19.0,30.04,NE,53,0.0,1.0,67,0.00,,,0.05,,2013-01-25 01:31:00,
2013-01-24 18:42:00,29.0,19.0,30.04,NE,53,0.0,1.0,67,0.00,,,0.05,,2013-01-25 01:42:00,
2013-01-24 18:52:00,28.0,20.0,30.02,NE,53,0.0,1.0,71,0.00,,,0.05,,2013-01-25 01:52:00,
2013-01-24 19:01:00,28.0,20.0,30.02,NE,53,0.0,1.0,71,0.00,,,0.05,,2013-01-25 02:01:00,
2013-01-24 19:11:00,28.0,20.0,30.02,NE,53,0.0,1.0,71,0.00,,,0.05,,2013-01-25 02:11:00,
2013-01-24 19:22:00,28.0,20.0,30.01,NE,53,0.0,1.0,73,0.00,,,0.05,,2013-01-25 02:22:00,
2013-01-24 19:31:00,28.0,20.0,30.01,NE,53,0.0,1.0,73,0.00,,,0.05,,2013-01-25 02:31:00,
2013-01-24 19:42:00,27.0,20.0,30.02,NNE,18,0.0,3.0,75,0.00,,,0.05,,2013-01-25 02:42:00,
2013-01-24 19:52:00,27.0,20.0,30.02,NNE,18,0.0,3.0,75,0.00,,,0.05,,2013-01-25 02:52:00,
2013-01-24 20:01:00,27.0,20.0,30.02,NNE,18,0.0,3.0,75,0.00,,,0.05,,2013-01-25 03:01:00,
2013-01-24 20:12:00,30.0,20.0,30.03,NNW,343,0.0,1.0,67,0.00,,,0.05,,2013-01-25 03:12:00,
2013-01-24 20:21:00,30.0,20.0,30.03,NNW,343,0.0,1.0,67,0.00,,,0.05,,2013-01-25 03:21:00,
2013-01-24 20:32:00,30.0,20.0,30.03,NNW,343,0.0,1.0,67,0.00,,,0.05,,2013-01-25 03:32:00,
2013-01-24 20:42:00,30.0,20.0,30.03,NNW,343,0.0,1.0,67,0.00,,,0.05,,2013-01-25 03:42:00,
2013-01-24 20:52:00,31.0,21.0,30.03,NW,319,0.0,5.0,66,0.00,,,0.05,,2013-01-25 03:52:00,
2013-01-24 21:01:00,31.0,21.0,30.03,NW,319,0.0,5.0,66,0.00,,,0.05,,2013-01-25 04:01:00,
2013-01-24 21:11:00,30.0,21.0,30.02,NW,320,0.0,1.0,69,0.00,,,0.05,,2013-01-25 04:11:00,
2013-01-24 21:22:00,30.0,21.0,30.02,NW,320,0.0,1.0,69,0.00,,,0.05,,2013-01-25 04:22:00,
2013-01-24 21:31:00,30.0,21.0,30.02,NW,320,0.0,1.0,69,0.00,,,0.05,,2013-01-25 04:31:00,
2013-01-24 21:42:00,30.0,21.0,30.02,NW,320,0.0,1.0,69,0.00,,,0.05,,2013-01-25 04:42:00,
2013-01-24 21:51:00,28.0,20.0,30.01,NW,320,0.0,2.0,73,0.00,,,0.05,,2013-01-25 04:51:00,
2013-01-24 22:03:00,28.0,20.0,30.01,NW,320,0.0,2.0,73,0.00,,,0.05,,2013-01-25 05:03:00,
2013-01-24 22:12:00,28.0,20.0,30.01,NE,35,0.0,3.0,71,0.00,,,0.05,,2013-01-25 05:12:00,
2013-01-24 22:22:00,28.0,20.0,30.01,NE,35,0.0,3.0,71,0.00,,,0.05,,2013-01-25 05:22:00,
2013-01-24 22:31:00,28.0,20.0,30.01,NE,35,0.0,3.0,71,0.00,,,0.05,,2013-01-25 05:31:00,
2013-01-24 22:43:00,28.0,20.0,30.01,NE,35,0.0,3.0,71,0.00,,,0.05,,2013-01-25 05:43:00,
2013-01-24 22:52:00,28.0,20.0,30.02,NE,35,0.0,1.0,72,0.00,,,0.05,,2013-01-25 05:52:00,
2013-01-24 23:01:00,28.0,20.0,30.02,NE,35,0.0,1.0,72,0.00,,,0.05,,2013-01-25 06:01:00,
2013-01-24 23:11:00,28.0,20.0,30.02,NE,35,0.0,1.0,72,0.00,,,0.05,,2013-01-25 06:11:00,
2013-01-24 23:21:00,29.0,21.0,30.00,NE,35,0.0,1.0,73,0.00,,,0.05,,2013-01-25 06:21:00,
2013-01-24 23:31:00,29.0,21.0,30.00,NE,35,0.0,1.0,73,0.00,,,0.05,,2013-01-25 06:31:00,
2013-01-24 23:42:00,29.0,21.0,30.00,NE,35,0.0,1.0,73,0.00,,,0.05,,2013-01-25 06:42:00,
2013-01-24 23:52:00,29.0,21.0,30.00,NE,35,0.0,2.0,73,0.00,,,0.05,,2013-01-25 06:52:00,